SCP
0 0 0 0 0 0 0 0 0 0 0 1 1 1 1 3 2 1 3 2 4 3 1 1 1 1 1 1 1 1 1 1 1 1 1 1 1 1 1 1 0 0 0
0 0 0 0 0 0 0 0 0 0 0 0 1 1 0 0 2 3 1 2 2 2 2 1 1 1 1 1 1 1 1 1 1 1 1 1 1 1 1 1 1 1 0
0 0 0 0 0 0 0 0 0 0 0 0 0 0 1 0 0 0 0 1 3 2 1 1 1 1 1 1 1 1 1 1 1 1 1 1 1 1 1 1 1 1 1
0 0 0 0 0 0 0 0 0 0 0 0 0 0 1 1 0 -0 -0 1 2 1 1 1 1 1 1 1 1 1 1 1 1 1 1 1 1 1 1 1 1 1 1
0 0 0 0 0 0 0 0 0 0 0 0 0 0 0 0 0 0 0 0 0 0 1 1 1 2 1 1 1 0 1 1 1 1 1 1 1 1 1 1 1 1 1
0 0 0 0 0 0 0 0 0 0 0 0 0 0 0 0 0 0 0 0 0 0 0 0 0 0 0 0 1 0 1 1 1 1 1 1 1 1 1 1 1 1 1
0 0 0 0 0 0 0 0 0 0 0 0 0 0 0 0 0 0 0 0 0 0 1 1 1 1 0 0 0 0 0 1 1 1 1 1 0 1 1 1 1 1 1
0 0 0 0 0 0 0 0 0 0 0 0 0 0 0 0 0 0 0 0 0 0 1 1 1 0 0 1 1 -0 0 0 1 1 2 1 0 0 1 1 1 1 1
0 0 0 0 0 0 0 0 0 0 0 0 0 0 0 0 0 0 0 1 1 1 0 0 0 0 1 0 0 0 -0 1 0 0 1 0 0 0 1 1 1 1 1
0 0 0 0 0 0 0 0 0 -0 -0 0 0 0 0 0 0 0 0 0 0 0 0 0 0 0 0 0 0 0 0 0 0 1 0 1 1 1 1 1 1 1 1
0 0 0 0 0 0 0 0 0 0 0 0 0 0 0 0 0 0 0 0 0 0 0 0 0 0 0 0 0 0 0 0 0 0 0 0 1 1 2 1 1 1 1
0 0 0 0 0 0 0 0 0 -0 0 0 0 0 0 0 0 0 0 0 0 0 0 0 0 0 0 0 0 0 0 0 0 0 0 0 0 0 1 1 1 1 1
0 0 0 0 0 0 0 0 -0 0 -0 0 0 0 0 0 0 0 0 0 0 0 0 0 0 0 0 0 0 0 0 0 0 0 0 0 0 0 0 0 0 0 1
0 0 0 0 0 0 0 0 -0 -0 0 0 0 0 0 0 0 0 0 0 0 0 0 0 0 0 0 0 0 0 0 0 0 0 0 0 0 0 0 0 0 0 0
0 0 0 0 0 0 0 0 0 0 -0 -0 -0 0 0 0 0 0 0 0 0 0 0 0 0 0 0 0 0 0 0 0 0 0 0 0 0 0 0 0 0 0 0
0 0 0 0 0 0 0 0 0 -0 0 -0 -0 -0 0 0 0 0 0 0 0 0 0 0 0 0 0 0 0 0 0 0 0 0 0 0 0 0 0 0 0 0 0
0 0 0 0 0 0 0 0 0 0 -0 0 -0 -0 0 0 0 0 0 0 0 0 0 0 0 0 0 0 0 0 0 0 0 0 0 0 0 0 0 0 0 0 0
0 0 0 0 0 0 0 0 0 0 0 -0 -0 -0 -0 0 0 0 0 0 0 0 0 0 0 0 0 0 0 0 0 0 0 0 0 0 0 0 0 0 0 0 0
0 0 0 0 0 0 0 0 0 0 0 -0 -0 -0 -0 -0 -0 0 0 0 0 0 0 0 0 0 0 0 0 0 0 0 0 0 0 0 0 0 0 0 0 0 0
0 0 0 0 0 0 0 0 0 0 0 0 -0 -0 -0 -0 -0 -0 0 0 0 0 0 0 0 0 0 0 0 0 0 0 0 0 0 0 0 0 0 0 0 0 0
0 0 0 0 0 0 0 0 0 0 0 0 -0 -0 -0 -0 -0 -0 0 0 0 0 0 0 0 0 0 0 0 0 0 0 0 0 0 0 0 0 0 0 0 0 0
0 0 0 0 0 0 0 0 0 0 0 0 0 -0 -0 -0 -0 -0 -0 -0 -0 0 0 0 0 0 0 0 0 0 0 0 0 0 0 0 0 0 0 0 0 0 0
0 0 0 0 0 0 0 0 0 0 0 0 0 0 0 -0 -0 -0 -0 -0 -0 -0 0 0 0 0 0 0 0 -0 0 0 0 0 0 0 0 0 0 0 0 0 0
0 0 0 0 0 0 0 0 0 0 0 0 0 0 0 0 -0 -0 -0 -0 -0 -0 -0 0 0 0 0 0 0 0 0 0 0 0 0 0 0 0 0 0 0 0 0
0 0 0 0 0 0 0 0 0 0 0 0 0 0 0 0 -0 -0 0 -0 -0 -0 -0 0 0 0 0 0 0 0 0 0 0 0 0 0 0 0 0 0 0 0 0
0 0 0 0 0 0 0 0 0 0 0 0 0 0 0 0 0 0 0 0 0 0 0 0 -0 0 0 0 0 0 0 0 0 0 0 0 0 0 0 0 0 0 0
Wind_Speed_500mb
42 36 34 32 30 30 31 34 37 39 45 39 39 52 66 68 83 77 72 76 78 81 87 77 76 76 77 77 75 74 73 72 71 69 66 68 67 66 63 58 53 49 48
42 38 33 32 31 31 31 33 34 42 43 41 48 49 53 93 89 101 88 75 54 70 77 74 74 75 75 78 79 79 79 78 78 74 72 73 74 72 73 68 61 57 54
38 35 31 31 31 33 33 33 32 33 36 40 54 50 53 60 81 84 73 73 90 72 68 73 71 71 71 73 76 79 81 82 81 79 77 75 76 78 79 76 72 67 63
38 37 32 29 31 30 35 40 37 36 33 37 43 52 50 48 78 89 104 46 49 62 55 56 58 61 67 68 71 72 71 79 81 80 77 75 73 78 85 83 77 74 71
37 36 33 30 28 23 32 32 34 34 35 34 38 43 44 46 49 55 54 79 70 67 60 58 62 61 63 61 65 73 67 68 72 76 76 75 73 71 77 84 83 81 78
34 32 27 34 29 27 26 31 32 32 32 32 36 40 42 45 46 49 50 51 55 60 80 94 101 82 91 89 73 72 74 69 70 69 70 68 66 64 64 69 76 81 82
38 36 29 30 28 25 29 32 34 35 33 28 34 31 37 40 46 50 47 47 47 52 52 55 82 90 89 93 101 78 77 76 72 70 69 67 67 67 63 65 66 68 75
34 37 33 29 31 26 29 32 34 38 36 31 29 32 31 29 35 42 46 45 44 45 45 48 54 74 90 79 76 92 79 85 74 71 73 73 71 70 69 67 70 71 73
35 39 34 29 30 31 32 34 34 35 38 38 30 18 16 15 15 19 29 30 38 43 42 40 46 52 69 73 84 70 100 90 83 81 88 85 78 78 76 77 79 77 79
41 37 33 32 30 30 35 31 34 38 35 36 37 25 20 29 22 19 14 11 11 14 21 26 29 41 47 79 73 91 62 77 88 94 86 100 89 74 76 79 82 81 77
38 36 34 33 33 32 30 31 34 37 34 32 33 33 31 21 22 24 25 14 8 5 3 2 6 17 26 30 41 49 43 56 69 73 77 84 88 84 72 71 70 72 74
42 36 34 34 33 34 32 33 31 36 39 38 30 27 25 25 25 16 14 15 12 10 2 3 1 6 15 26 35 34 38 33 43 54 63 64 63 66 70 68 65 66 68
37 42 36 35 34 35 35 33 29 30 36 37 39 33 26 20 19 13 11 14 12 8 4 4 2 5 5 11 13 27 31 27 33 39 44 48 48 54 57 57 59 59 61
34 32 35 35 37 42 41 36 29 29 31 28 31 40 35 28 21 17 13 12 12 10 7 4 4 4 3 6 17 21 20 15 17 24 32 35 39 40 42 45 48 50 40
33 32 34 33 35 38 39 36 31 33 30 29 26 27 24 26 22 15 12 10 11 8 4 8 5 3 2 2 11 7 7 8 10 13 17 19 21 22 24 25 26 26 24
34 33 36 34 36 43 40 39 34 34 35 28 29 27 25 29 27 15 11 9 10 12 7 1 5 1 3 9 15 7 14 28 27 27 27 26 24 23 29 33 32 29 28
37 34 36 38 38 42 43 44 35 34 31 30 32 31 28 29 26 18 13 11 13 10 6 4 7 9 7 12 18 20 21 30 39 40 48 53 50 43 34 27 24 23 22
39 37 37 35 36 41 42 39 41 36 32 33 31 31 33 32 31 24 12 10 11 10 13 15 18 17 18 19 20 20 27 26 23 36 44 43 40 33 30 27 23 20 19
36 36 34 49 38 39 42 46 36 36 35 35 32 30 36 36 37 35 25 19 9 18 20 23 26 29 25 23 27 28 29 28 26 23 13 22 28 28 26 23 18 17 14
37 38 39 44 41 37 43 47 38 35 34 36 32 30 34 35 34 36 37 31 6 15 24 28 35 35 30 24 22 24 26 22 27 23 15 7 6 3 18 15 9 6 8
38 38 40 41 45 41 46 47 40 36 35 30 30 26 27 29 39 31 31 26 19 15 29 37 37 33 32 27 21 26 30 30 31 24 19 17 13 7 9 7 2 3 3
31 36 38 39 39 45 44 44 40 34 31 32 32 30 25 24 28 32 30 30 23 26 31 33 29 27 26 25 25 24 26 26 34 26 27 28 20 13 12 12 6 4 1
31 31 35 37 36 44 49 45 29 40 32 34 27 26 26 22 20 23 26 23 27 28 19 11 17 20 21 23 25 22 15 13 18 24 16 24 10 16 13 7 6 6 2
29 31 33 35 37 40 46 43 37 24 34 34 29 29 21 22 19 21 18 22 23 20 21 16 15 13 13 13 17 16 7 8 19 11 11 10 12 12 6 8 7 6 7
27 28 29 31 37 42 46 44 37 30 28 31 34 34 19 21 19 12 16 18 19 21 18 16 14 11 10 9 11 8 9 16 12 9 5 7 10 10 7 10 7 6 8
24 28 31 30 35 39 43 43 35 36 30 33 28 30 24 20 18 15 15 11 14 17 18 15 11 7 7 8 9 8 6 12 7 12 7 10 11 4 4 5 6 8 5
Wind_Direction_500mb
334 334 328 323 316 309 303 295 290 285 275 271 267 256 246 241 232 233 237 239 233 242 247 240 240 242 242 244 244 243 244 244 245 244 245 246 244 243 246 249 252 253 255
333 332 328 320 318 311 308 302 294 282 279 278 266 261 261 246 241 240 235 233 237 239 244 238 239 243 243 245 248 246 244 244 245 244 244 244 245 246 246 246 248 251 253
343 342 328 322 316 313 314 309 307 296 282 272 265 265 261 253 237 235 250 244 232 238 239 236 237 241 244 245 247 250 247 245 245 245 244 244 244 244 246 246 247 250 252
343 343 335 328 315 324 305 315 314 303 296 284 275 265 261 259 242 255 264 261 244 238 237 237 232 238 240 244 249 249 248 247 244 244 243 242 244 245 244 244 245 248 252
344 346 340 334 330 322 303 320 323 323 311 299 284 275 267 262 261 264 260 250 259 245 239 238 243 254 247 242 248 251 247 245 240 240 242 244 243 246 245 243 243 247 251
348 351 343 339 342 336 334 331 328 321 319 314 297 284 267 253 251 253 254 251 257 259 251 250 261 260 253 249 251 254 248 244 240 238 238 239 240 243 244 246 246 248 250
355 357 354 349 349 345 342 334 336 340 340 321 313 294 274 261 250 249 250 250 252 252 251 248 245 247 247 253 248 254 250 243 236 236 237 241 245 245 246 250 249 251 251
351 358 355 352 351 351 343 342 347 348 341 340 329 303 279 266 247 247 246 249 251 254 248 254 249 246 245 243 246 254 251 241 235 236 238 240 247 250 251 252 254 256 255
358 357 357 356 354 356 355 353 346 351 343 343 334 304 309 286 319 242 235 245 245 248 248 246 250 250 246 243 248 245 259 242 241 243 248 247 254 254 255 255 255 254 253
4 4 7 3 354 359 3 350 351 354 342 339 335 334 302 283 290 273 242 240 233 242 243 240 245 246 248 237 249 248 251 244 243 243 248 245 249 255 255 258 256 252 252
6 15 11 9 9 5 5 1 358 356 358 350 346 338 340 309 282 272 270 251 252 266 234 283 263 244 249 234 231 237 246 242 237 238 244 249 249 248 252 254 254 254 253
15 11 11 9 4 1 356 1 358 354 355 2 354 358 354 342 314 321 313 298 284 245 209 169 274 262 251 237 235 234 241 239 233 237 240 243 245 246 249 252 253 253 252
14 17 15 11 9 4 359 351 354 353 358 356 1 1 359 353 332 302 284 299 291 256 257 274 117 247 184 234 211 228 244 238 239 237 238 240 244 245 245 247 251 250 250
6 3 3 3 8 10 5 5 359 358 357 356 353 355 356 354 348 334 302 310 303 256 195 251 296 205 235 247 206 213 210 228 235 238 237 237 237 238 239 241 245 247 247
1 356 358 357 358 358 0 0 353 355 2 357 0 355 353 347 345 322 309 283 284 305 225 156 212 108 98 238 154 165 183 171 192 220 223 213 210 209 217 219 214 210 194
4 1 1 1 2 3 5 5 7 355 1 1 359 5 355 354 355 338 312 300 272 256 289 143 120 120 178 178 166 179 167 180 173 187 191 183 176 157 146 141 139 144 150
7 5 6 4 358 7 10 14 10 3 5 3 4 4 359 6 1 344 338 304 290 259 238 147 151 143 159 195 187 175 159 180 171 165 148 146 144 147 150 145 143 141 143
17 23 16 9 7 4 4 359 6 1 4 3 6 14 8 11 19 3 1 320 265 229 198 197 153 143 143 144 139 131 122 137 155 164 153 145 142 147 151 151 155 157 160
20 14 10 23 17 13 10 10 4 7 5 6 3 8 15 7 21 11 23 2 252 213 199 182 159 142 129 142 141 137 126 115 107 109 108 122 140 153 162 157 163 179 194
14 13 11 12 14 17 11 15 10 4 3 358 6 16 11 13 13 19 26 17 11 190 191 175 152 140 135 132 132 129 118 120 109 106 96 56 332 317 94 98 110 156 200
18 17 14 12 11 10 4 10 14 17 15 16 8 11 14 22 20 25 26 33 61 140 160 156 143 143 137 127 128 126 121 115 101 94 94 96 123 110 84 116 23 118 176
19 21 19 15 14 11 6 5 11 18 17 19 20 17 19 20 19 19 44 63 85 107 125 124 127 141 148 139 130 122 116 116 101 99 98 84 79 92 74 68 61 32 15
15 9 10 12 11 13 10 6 5 23 22 19 19 17 18 21 34 40 35 58 75 87 91 111 119 126 136 138 132 127 117 114 124 116 97 98 103 72 59 59 80 57 63
6 6 8 10 12 0 10 8 7 12 20 23 24 20 25 23 37 49 43 54 62 83 89 95 121 126 145 154 174 156 132 136 143 135 132 115 103 88 44 58 46 51 70
357 359 4 9 12 2 3 7 14 14 22 18 23 20 34 24 37 50 61 53 76 61 78 79 88 113 124 149 161 151 168 154 155 156 131 139 152 113 70 58 79 96 76
351 4 0 359 9 7 8 10 18 23 21 26 17 19 25 24 37 48 35 66 59 55 47 61 84 114 131 129 159 166 171 193 181 196 169 159 169 171 149 121 120 85 56
Wind_Speed_850mb
42 36 34 32 30 30 31 34 37 39 45 39 39 52 66 68 83 77 72 76 78 81 87 77 76 76 77 77 75 74 73 72 71 69 66 68 67 66 63 58 53 49 48
42 38 33 32 31 31 31 33 34 42 43 41 48 49 53 93 89 101 88 75 54 70 77 74 74 75 75 78 79 79 79 78 78 74 72 73 74 72 73 68 61 57 54
38 35 31 31 31 33 33 33 32 33 36 40 54 50 53 60 81 84 73 73 90 72 68 73 71 71 71 73 76 79 81 82 81 79 77 75 76 78 79 76 72 67 63
38 37 32 29 31 30 35 40 37 36 33 37 43 52 50 48 78 89 104 46 49 62 55 56 58 61 67 68 71 72 71 79 81 80 77 75 73 78 85 83 77 74 71
37 36 33 30 28 23 32 32 34 34 35 34 38 43 44 46 49 55 54 79 70 67 60 58 62 61 63 61 65 73 67 68 72 76 76 75 73 71 77 84 83 81 78
34 32 27 34 29 27 26 31 32 32 32 32 36 40 42 45 46 49 50 51 55 60 80 94 101 82 91 89 73 72 74 69 70 69 70 68 66 64 64 69 76 81 82
38 36 29 30 28 25 29 32 34 35 33 28 34 31 37 40 46 50 47 47 47 52 52 55 82 90 89 93 101 78 77 76 72 70 69 67 67 67 63 65 66 68 75
34 37 33 29 31 26 29 32 34 38 36 31 29 32 31 29 35 42 46 45 44 45 45 48 54 74 90 79 76 92 79 85 74 71 73 73 71 70 69 67 70 71 73
35 39 34 29 30 31 32 34 34 35 38 38 30 18 16 15 15 19 29 30 38 43 42 40 46 52 69 73 84 70 100 90 83 81 88 85 78 78 76 77 79 77 79
41 37 33 32 30 30 35 31 34 38 35 36 37 25 20 29 22 19 14 11 11 14 21 26 29 41 47 79 73 91 62 77 88 94 86 100 89 74 76 79 82 81 77
38 36 34 33 33 32 30 31 34 37 34 32 33 33 31 21 22 24 25 14 8 5 3 2 6 17 26 30 41 49 43 56 69 73 77 84 88 84 72 71 70 72 74
42 36 34 34 33 34 32 33 31 36 39 38 30 27 25 25 25 16 14 15 12 10 2 3 1 6 15 26 35 34 38 33 43 54 63 64 63 66 70 68 65 66 68
37 42 36 35 34 35 35 33 29 30 36 37 39 33 26 20 19 13 11 14 12 8 4 4 2 5 5 11 13 27 31 27 33 39 44 48 48 54 57 57 59 59 61
34 32 35 35 37 42 41 36 29 29 31 28 31 40 35 28 21 17 13 12 12 10 7 4 4 4 3 6 17 21 20 15 17 24 32 35 39 40 42 45 48 50 40
33 32 34 33 35 38 39 36 31 33 30 29 26 27 24 26 22 15 12 10 11 8 4 8 5 3 2 2 11 7 7 8 10 13 17 19 21 22 24 25 26 26 24
34 33 36 34 36 43 40 39 34 34 35 28 29 27 25 29 27 15 11 9 10 12 7 1 5 1 3 9 15 7 14 28 27 27 27 26 24 23 29 33 32 29 28
37 34 36 38 38 42 43 44 35 34 31 30 32 31 28 29 26 18 13 11 13 10 6 4 7 9 7 12 18 20 21 30 39 40 48 53 50 43 34 27 24 23 22
39 37 37 35 36 41 42 39 41 36 32 33 31 31 33 32 31 24 12 10 11 10 13 15 18 17 18 19 20 20 27 26 23 36 44 43 40 33 30 27 23 20 19
36 36 34 49 38 39 42 46 36 36 35 35 32 30 36 36 37 35 25 19 9 18 20 23 26 29 25 23 27 28 29 28 26 23 13 22 28 28 26 23 18 17 14
37 38 39 44 41 37 43 47 38 35 34 36 32 30 34 35 34 36 37 31 6 15 24 28 35 35 30 24 22 24 26 22 27 23 15 7 6 3 18 15 9 6 8
38 38 40 41 45 41 46 47 40 36 35 30 30 26 27 29 39 31 31 26 19 15 29 37 37 33 32 27 21 26 30 30 31 24 19 17 13 7 9 7 2 3 3
31 36 38 39 39 45 44 44 40 34 31 32 32 30 25 24 28 32 30 30 23 26 31 33 29 27 26 25 25 24 26 26 34 26 27 28 20 13 12 12 6 4 1
31 31 35 37 36 44 49 45 29 40 32 34 27 26 26 22 20 23 26 23 27 28 19 11 17 20 21 23 25 22 15 13 18 24 16 24 10 16 13 7 6 6 2
29 31 33 35 37 40 46 43 37 24 34 34 29 29 21 22 19 21 18 22 23 20 21 16 15 13 13 13 17 16 7 8 19 11 11 10 12 12 6 8 7 6 7
27 28 29 31 37 42 46 44 37 30 28 31 34 34 19 21 19 12 16 18 19 21 18 16 14 11 10 9 11 8 9 16 12 9 5 7 10 10 7 10 7 6 8
24 28 31 30 35 39 43 43 35 36 30 33 28 30 24 20 18 15 15 11 14 17 18 15 11 7 7 8 9 8 6 12 7 12 7 10 11 4 4 5 6 8 5
Wind_Direction_850mb
334 334 328 323 316 309 303 295 290 285 275 271 267 256 246 241 232 233 237 239 233 242 247 240 240 242 242 244 244 243 244 244 245 244 245 246 244 243 246 249 252 253 255
333 332 328 320 318 311 308 302 294 282 279 278 266 261 261 246 241 240 235 233 237 239 244 238 239 243 243 245 248 246 244 244 245 244 244 244 245 246 246 246 248 251 253
343 342 328 322 316 313 314 309 307 296 282 272 265 265 261 253 237 235 250 244 232 238 239 236 237 241 244 245 247 250 247 245 245 245 244 244 244 244 246 246 247 250 252
343 343 335 328 315 324 305 315 314 303 296 284 275 265 261 259 242 255 264 261 244 238 237 237 232 238 240 244 249 249 248 247 244 244 243 242 244 245 244 244 245 248 252
344 346 340 334 330 322 303 320 323 323 311 299 284 275 267 262 261 264 260 250 259 245 239 238 243 254 247 242 248 251 247 245 240 240 242 244 243 246 245 243 243 247 251
348 351 343 339 342 336 334 331 328 321 319 314 297 284 267 253 251 253 254 251 257 259 251 250 261 260 253 249 251 254 248 244 240 238 238 239 240 243 244 246 246 248 250
355 357 354 349 349 345 342 334 336 340 340 321 313 294 274 261 250 249 250 250 252 252 251 248 245 247 247 253 248 254 250 243 236 236 237 241 245 245 246 250 249 251 251
351 358 355 352 351 351 343 342 347 348 341 340 329 303 279 266 247 247 246 249 251 254 248 254 249 246 245 243 246 254 251 241 235 236 238 240 247 250 251 252 254 256 255
358 357 357 356 354 356 355 353 346 351 343 343 334 304 309 286 319 242 235 245 245 248 248 246 250 250 246 243 248 245 259 242 241 243 248 247 254 254 255 255 255 254 253
4 4 7 3 354 359 3 350 351 354 342 339 335 334 302 283 290 273 242 240 233 242 243 240 245 246 248 237 249 248 251 244 243 243 248 245 249 255 255 258 256 252 252
6 15 11 9 9 5 5 1 358 356 358 350 346 338 340 309 282 272 270 251 252 266 234 283 263 244 249 234 231 237 246 242 237 238 244 249 249 248 252 254 254 254 253
15 11 11 9 4 1 356 1 358 354 355 2 354 358 354 342 314 321 313 298 284 245 209 169 274 262 251 237 235 234 241 239 233 237 240 243 245 246 249 252 253 253 252
14 17 15 11 9 4 359 351 354 353 358 356 1 1 359 353 332 302 284 299 291 256 257 274 117 247 184 234 211 228 244 238 239 237 238 240 244 245 245 247 251 250 250
6 3 3 3 8 10 5 5 359 358 357 356 353 355 356 354 348 334 302 310 303 256 195 251 296 205 235 247 206 213 210 228 235 238 237 237 237 238 239 241 245 247 247
1 356 358 357 358 358 0 0 353 355 2 357 0 355 353 347 345 322 309 283 284 305 225 156 212 108 98 238 154 165 183 171 192 220 223 213 210 209 217 219 214 210 194
4 1 1 1 2 3 5 5 7 355 1 1 359 5 355 354 355 338 312 300 272 256 289 143 120 120 178 178 166 179 167 180 173 187 191 183 176 157 146 141 139 144 150
7 5 6 4 358 7 10 14 10 3 5 3 4 4 359 6 1 344 338 304 290 259 238 147 151 143 159 195 187 175 159 180 171 165 148 146 144 147 150 145 143 141 143
17 23 16 9 7 4 4 359 6 1 4 3 6 14 8 11 19 3 1 320 265 229 198 197 153 143 143 144 139 131 122 137 155 164 153 145 142 147 151 151 155 157 160
20 14 10 23 17 13 10 10 4 7 5 6 3 8 15 7 21 11 23 2 252 213 199 182 159 142 129 142 141 137 126 115 107 109 108 122 140 153 162 157 163 179 194
14 13 11 12 14 17 11 15 10 4 3 358 6 16 11 13 13 19 26 17 11 190 191 175 152 140 135 132 132 129 118 120 109 106 96 56 332 317 94 98 110 156 200
18 17 14 12 11 10 4 10 14 17 15 16 8 11 14 22 20 25 26 33 61 140 160 156 143 143 137 127 128 126 121 115 101 94 94 96 123 110 84 116 23 118 176
19 21 19 15 14 11 6 5 11 18 17 19 20 17 19 20 19 19 44 63 85 107 125 124 127 141 148 139 130 122 116 116 101 99 98 84 79 92 74 68 61 32 15
15 9 10 12 11 13 10 6 5 23 22 19 19 17 18 21 34 40 35 58 75 87 91 111 119 126 136 138 132 127 117 114 124 116 97 98 103 72 59 59 80 57 63
6 6 8 10 12 0 10 8 7 12 20 23 24 20 25 23 37 49 43 54 62 83 89 95 121 126 145 154 174 156 132 136 143 135 132 115 103 88 44 58 46 51 70
357 359 4 9 12 2 3 7 14 14 22 18 23 20 34 24 37 50 61 53 76 61 78 79 88 113 124 149 161 151 168 154 155 156 131 139 152 113 70 58 79 96 76
351 4 0 359 9 7 8 10 18 23 21 26 17 19 25 24 37 48 35 66 59 55 47 61 84 114 131 129 159 166 171 193 181 196 169 159 169 171 149 121 120 85 56